Weather in Klimovsk

Russia / Komi Republic     61°17′08″N   53°38′52″E
temp.,
°C
wind,
m/s
gust,
m/s
humid.,
%
clouds,
%
prec.,
mm/h
press.,
hPa
HPBL,
m
18 may, tue
tue1800:00+13nne378797 0.2 1017588
03:00+9nnw269615 0.2 1020252
06:00+12nne35690 0.0 1021527
09:00+17nne34460 0.0 10221054
12:00+20nne33331 0.0 10221500
15:00+21ene22318 0.0 10221522
18:00+19e23425 0.0 1022104
21:00+13ese11605 0.0 102310
19 may, wed
wed1900:00+11se116970 0.0 102311
03:00+11sse1170100 0.0 102413
06:00+15s2459100 0.0 1024234
09:00+21ssw344170 0.0 10231068
12:00+24ssw343310 0.0 10221676
15:00+25ssw343118 0.0 10211794
18:00+22ssw25422 0.0 1020209
21:00+16ssw23653 0.0 102153
20 may, thu
thu2000:00+13ssw26744 0.0 102198
03:00+12sw27784 0.0 1021117
06:00+18sw36558 0.0 1021276
09:00+23sw353818 0.0 10201223
12:00+26ssw45285 0.0 10191884
15:00+27sw34250 0.0 10181977
18:00+24ssw263516 0.0 1017225
21:00+17ssw22550 0.0 101712
21 may, fri
fri2100:00+15ssw26610 0.0 101785
03:00+13ssw22680 0.0 101835
06:00+19s24510 0.0 1017239
09:00+24ssw47380 0.0 10161573
12:00+26ssw58270 0.0 10152345
15:00+26ssw59265 0.0 10132931
18:00+24sw49349 0.0 10121238
21:00+16s2105812 0.0 1012197
22 may, sat
sat2200:00+17ssw41265100 0.0 1011627
03:00+15s4128187 0.0 1011556
06:00+17ssw510725 0.2 10101128
09:00+18sw7114846 0.3 10111857
12:00+18wsw71055100 0.1 10121676
15:00+17wsw612585 0.5 10131632
18:00+16wsw4125340 0.7 10132232
21:00+13wsw512565 0.8 1016768